FORMOSAT-5

Last updated on Sun Apr 12 2026 00:02:35 GMT+0000 (Coordinated Universal Time)

1 42920U 17049A 26101.50231453 .00000129 00000+0 43810-4 0 9992 2 42920 98.2269 178.2893 0010398 293.4598 66.5503 14.50713556457002
UTC large
Height (km)
Speed (km/s)
/
Latitude / Longitude
Inclination (degrees)
Orbital Period (minutes)
Azimuth
Elevation
Range (km)
Doppler Factor

Next 0 passes for location: London (51.5072 / 0.1276)

Sorry there are no passes over London.
FORMOSAT-5